Regional Weather Roundup
Issued by NWS

Home | Current Version | Previous Version | Graphics & Text | Print | Product List | Glossary On
Versions: 1 2 3 4 5 6 7 8 9 10 11 12 13 14 15 16 17 18 19 20 21 22 23 24 25 26 27 28 29 30 31 32 33 34 35 36 37 38 39 40 41 42 43 44 45 46 47 48 49 50
000
ASUS43 KLSX 291907
RWRMO

WEATHER SUMMARY FOR MISSOURI
NATIONAL WEATHER SERVICE SPRINGFIELD MO
200 PM CDT SUN MAR 29 2015

NOTE: "FAIR" INDICATES FEW OR NO CLOUDS BELOW 12,000 FEET WITH NO
       SIGNIFICANT WEATHER AND/OR OBSTRUCTIONS TO VISIBILITY.
       CURRENT SKY AND/OR WEATHER CONDITIONS ARE NOT AVAILABLE FOR
       CHILLICOTHE AND FARMINGTON.

MOZ001>031-035>038-043-044-053-054-292000-
...NORTHERN AND WESTERN MISSOURI...

CITY           SKY/WX    TMP DP  RH WIND       PRES   REMARKS
KANSAS CTY INT PTSUNNY   61  42  49 NW10G22   29.98F
KANSAS C DTWN  MOSUNNY   63  42  46 NW9       29.98F
LEE`S SUMMIT   PTSUNNY   61  42  49 W7        29.98F
ST JOSEPH      CLOUDY    68  40  35 NW24G33   29.96F
CHILLICOTHE      N/A     59  42  53 W9G17     29.97S
KIRKSVILLE     CLOUDY    54  40  59 SW14G20   29.93F

$$
MOZ066>068-077>081-088>096-101>105-292000-
...SOUTHWEST MISSOURI...

CITY           SKY/WX    TMP DP  RH WIND       PRES   REMARKS
SPRINGFIELD    PTSUNNY   59  38  45 SW12      30.02S
JOPLIN         PTSUNNY   62  42  47 W13       30.03R

$$
MOZ032>034-039>042-045>050-055>058-069>072-292000-
...CENTRAL MISSOURI...

CITY           SKY/WX    TMP DP  RH WIND       PRES   REMARKS
COLUMBIA       CLOUDY    53  36  52 W15       29.98F
JEFFERSON CITY CLOUDY    55  35  47 SW8       29.98F
ROLLA          PTSUNNY   58  37  45 SW16      29.96F
SEDALIA        CLOUDY    53  38  56 W15G26    30.02R
WHITEMAN AFB   CLOUDY    54  40  57 W14       29.98F
WARRENSBURG    CLOUDY    55  41  58 SW13      30.00F
OSAGE BEACH    CLOUDY    59  36  41 SW13      30.00S

$$
MOZ051-052-059>065-292000-
...EAST CENTRAL MISSOURI...

CITY           SKY/WX    TMP DP  RH WIND       PRES   REMARKS
ST LOUIS INTL  CLOUDY    59  31  34 S17       29.98R
SPIRIT OF STL  PTSUNNY   58  33  39 SW9G17    29.97R
ST CHARLES     CLOUDY    57  33  40 SW17      29.97R

$$
MOZ072>076-082>087-097>100-106>115-292000-
...SOUTH CENTRAL AND SOUTHEAST MISSOURI...

CITY           SKY/WX    TMP DP  RH WIND       PRES   REMARKS
CAPE GIRARDEAU CLOUDY    53  38  56 S16G28    30.07F
FARMINGTON     MOSUNNY   59  37  44 S21G31    30.03F
POPLAR BLUFF   CLOUDY    51  37  58 S16G23    30.08F
WEST PLAINS    MOSUNNY   53  39  59 S9        30.05F

$$



USA.gov is the U.S. government's official web portal to all federal, state and local government web resources and services.